Météo par heure à Al Hudaydah

Ce jour, 21 Octobre, Mercredi

Heure Température Précipitation Vent Pression Humidité
00:00 +33°C° 0 mm 4 m/s 754 mmHg 56%
01:00 +33°C° 0 mm 3 m/s 754 mmHg 56%
02:00 +33°C° 0 mm 3 m/s 753 mmHg 56%
03:00 +32°C° 0 mm 2 m/s 753 mmHg 57%
04:00 +31°C° 0 mm 2 m/s 753 mmHg 57%
05:00 +31°C° 0 mm 1 m/s 754 mmHg 57%
06:00 +31°C° 0 mm 1 m/s 754 mmHg 57%
07:00 +32°C° 0 mm 1 m/s 754 mmHg 52%
08:00 +33°C° 0 mm 1 m/s 754 mmHg 48%
09:00 +35°C° 0 mm 1 m/s 754 mmHg 43%
10:00 +37°C° 0 mm 2 m/s 754 mmHg 38%
11:00 +38°C° 0 mm 3 m/s 754 mmHg 33%
12:00 +40°C° 0 mm 4 m/s 753 mmHg 28%
13:00 +40°C° 0 mm 5 m/s 753 mmHg 31%
14:00 +40°C° 0 mm 6 m/s 752 mmHg 33%
15:00 +40°C° 0 mm 7 m/s 751 mmHg 36%
16:00 +39°C° 0 mm 6 m/s 752 mmHg 40%
17:00 +36°C° 0 mm 5 m/s 752 mmHg 44%
18:00 +35°C° 0 mm 4 m/s 753 mmHg 48%
19:00 +35°C° 0 mm 4 m/s 753 mmHg 47%
20:00 +35°C° 0 mm 4 m/s 753 mmHg 47%
21:00 +35°C° 0 mm 4 m/s 754 mmHg 46%
22:00 +34°C° 0 mm 4 m/s 754 mmHg 47%
23:00 +34°C° 0 mm 4 m/s 754 mmHg 48%

Demain, 22 Octobre, Jeudi

Heure Température Précipitation Vent Pression Humidité
00:00 +34°C° 0 mm 3 m/s 754 mmHg 49%
01:00 +34°C° 0 mm 3 m/s 753 mmHg 49%
02:00 +33°C° 0 mm 3 m/s 753 mmHg 49%
03:00 +32°C° 0 mm 2 m/s 753 mmHg 50%
04:00 +32°C° 0 mm 2 m/s 753 mmHg 50%
05:00 +31°C° 0 mm 2 m/s 753 mmHg 50%
06:00 +31°C° 0 mm 1 m/s 754 mmHg 50%
07:00 +33°C° 0 mm 1 m/s 754 mmHg 45%
08:00 +35°C° 0 mm 2 m/s 754 mmHg 41%
09:00 +37°C° 0 mm 2 m/s 755 mmHg 36%
10:00 +38°C° 0 mm 2 m/s 754 mmHg 33%
11:00 +39°C° 0 mm 3 m/s 754 mmHg 29%
12:00 +41°C° 0 mm 4 m/s 753 mmHg 25%
13:00 +41°C° 0 mm 5 m/s 752 mmHg 27%
14:00 +41°C° 0 mm 6 m/s 752 mmHg 29%
15:00 +41°C° 0 mm 7 m/s 751 mmHg 30%
16:00 +39°C° 0 mm 6 m/s 751 mmHg 37%
17:00 +38°C° 0 mm 6 m/s 751 mmHg 44%
18:00 +35°C° 0 mm 5 m/s 752 mmHg 51%
19:00 +35°C° 0 mm 5 m/s 752 mmHg 52%
20:00 +35°C° 0 mm 5 m/s 753 mmHg 53%
21:00 +34°C° 0 mm 4 m/s 753 mmHg 54%
22:00 +34°C° 0 mm 4 m/s 753 mmHg 55%
23:00 +34°C° 0 mm 3 m/s 753 mmHg 55%

Après-demain, 23 Octobre, Vendredi

Heure Température Précipitation Vent Pression Humidité
00:00 +34°C° 0 mm 3 m/s 753 mmHg 55%
01:00 +32°C° 0 mm 2 m/s 752 mmHg 55%
02:00 +32°C° 0 mm 2 m/s 752 mmHg 55%
03:00 +32°C° 0 mm 1 m/s 752 mmHg 55%
04:00 +31°C° 0 mm 1 m/s 752 mmHg 54%
05:00 +31°C° 0 mm 1 m/s 752 mmHg 54%
06:00 +31°C° 0 mm 1 m/s 753 mmHg 54%
07:00 +32°C° 0 mm 1 m/s 753 mmHg 50%
08:00 +33°C° 0 mm 1 m/s 753 mmHg 47%
09:00 +35°C° 0 mm 1 m/s 754 mmHg 43%
10:00 +37°C° 0 mm 2 m/s 753 mmHg 40%
11:00 +38°C° 0 mm 3 m/s 753 mmHg 36%
12:00 +40°C° 0 mm 4 m/s 752 mmHg 32%
13:00 +40°C° 0 mm 4 m/s 751 mmHg 34%
14:00 +40°C° 0 mm 5 m/s 751 mmHg 36%
15:00 +39°C° 0 mm 6 m/s 750 mmHg 38%
16:00 +37°C° 0 mm 5 m/s 751 mmHg 41%
17:00 +36°C° 0 mm 5 m/s 751 mmHg 44%
18:00 +35°C° 0 mm 4 m/s 751 mmHg 48%
19:00 +35°C° 0 mm 4 m/s 752 mmHg 50%
20:00 +35°C° 0 mm 3 m/s 752 mmHg 52%
21:00 +34°C° 0 mm 3 m/s 753 mmHg 54%
22:00 +34°C° 0 mm 3 m/s 753 mmHg 54%
23:00 +34°C° 0 mm 2 m/s 752 mmHg 55%

24 Octobre, Samedi

Heure Température Précipitation Vent Pression Humidité
00:00 +33°C° 0 mm 1 m/s 752 mmHg 56%
01:00 +32°C° 0 mm 1 m/s 752 mmHg 57%
02:00 +32°C° 0 mm 1 m/s 751 mmHg 58%
03:00 +31°C° 0 mm 1 m/s 751 mmHg 59%
04:00 +31°C° 0 mm 1 m/s 751 mmHg 61%
05:00 +31°C° 0 mm 2 m/s 752 mmHg 64%
06:00 +31°C° 0 mm 2 m/s 752 mmHg 66%
07:00 +32°C° 0 mm 2 m/s 753 mmHg 61%
08:00 +34°C° 0 mm 3 m/s 753 mmHg 57%
09:00 +35°C° 0 mm 3 m/s 753 mmHg 52%
10:00 +36°C° 0 mm 3 m/s 753 mmHg 48%
11:00 +37°C° 0 mm 4 m/s 752 mmHg 43%
12:00 +38°C° 0 mm 4 m/s 752 mmHg 39%
13:00 +38°C° 0 mm 4 m/s 751 mmHg 40%
14:00 +39°C° 0 mm 5 m/s 751 mmHg 41%
15:00 +39°C° 0 mm 6 m/s 750 mmHg 41%
16:00 +37°C° 0 mm 5 m/s 750 mmHg 44%
17:00 +36°C° 0 mm 3 m/s 751 mmHg 47%
18:00 +35°C° 0 mm 2 m/s 751 mmHg 50%
19:00 +35°C° 0 mm 2 m/s 752 mmHg 51%
20:00 +35°C° 0 mm 2 m/s 752 mmHg 51%
21:00 +35°C° 0 mm 2 m/s 753 mmHg 52%
22:00 +34°C° 0 mm 2 m/s 753 mmHg 54%
23:00 +34°C° 0 mm 2 m/s 752 mmHg 56%

25 Octobre, Dimanche

Heure Température Précipitation Vent Pression Humidité
00:00 +32°C° 0 mm 2 m/s 752 mmHg 59%
01:00 +32°C° 0 mm 2 m/s 752 mmHg 61%
02:00 +32°C° 0 mm 2 m/s 752 mmHg 64%
03:00 +31°C° 0 mm 2 m/s 752 mmHg 67%
04:00 +31°C° 0 mm 2 m/s 752 mmHg 68%
05:00 +31°C° 0 mm 2 m/s 752 mmHg 69%
06:00 +30°C° 0 mm 2 m/s 752 mmHg 71%
07:00 +31°C° 0 mm 2 m/s 753 mmHg 65%
08:00 +34°C° 0 mm 3 m/s 753 mmHg 59%
09:00 +35°C° 0 mm 3 m/s 753 mmHg 54%
10:00 +36°C° 0 mm 4 m/s 753 mmHg 49%
11:00 +37°C° 0 mm 5 m/s 752 mmHg 45%
12:00 +39°C° 0 mm 6 m/s 751 mmHg 40%
13:00 +39°C° 0 mm 6 m/s 751 mmHg 39%
14:00 +39°C° 0 mm 6 m/s 750 mmHg 38%
15:00 +39°C° 0 mm 6 m/s 750 mmHg 37%
16:00 +37°C° 0 mm 5 m/s 750 mmHg 42%
17:00 +36°C° 0 mm 5 m/s 750 mmHg 46%
18:00 +34°C° 0 mm 5 m/s 751 mmHg 50%
19:00 +34°C° 0 mm 4 m/s 751 mmHg 51%
20:00 +34°C° 0 mm 4 m/s 752 mmHg 51%
21:00 +34°C° 0 mm 3 m/s 752 mmHg 52%
22:00 +33°C° 0 mm 3 m/s 752 mmHg 53%
23:00 +33°C° 0 mm 3 m/s 752 mmHg 54%

26 Octobre, Lundi

Heure Température Précipitation Vent Pression Humidité
00:00 +33°C° 0 mm 3 m/s 752 mmHg 56%
01:00 +31°C° 0 mm 3 m/s 752 mmHg 58%
02:00 +31°C° 0 mm 3 m/s 752 mmHg 60%
03:00 +31°C° 0 mm 2 m/s 752 mmHg 62%
04:00 +30°C° 0 mm 2 m/s 752 mmHg 63%
05:00 +30°C° 0 mm 2 m/s 752 mmHg 64%
06:00 +30°C° 0 mm 2 m/s 753 mmHg 65%
07:00 +31°C° 0 mm 3 m/s 753 mmHg 60%
08:00 +33°C° 0 mm 3 m/s 753 mmHg 55%
09:00 +34°C° 0 mm 4 m/s 754 mmHg 49%
10:00 +35°C° 0 mm 5 m/s 753 mmHg 47%
11:00 +36°C° 0 mm 5 m/s 753 mmHg 44%
12:00 +38°C° 0 mm 6 m/s 752 mmHg 42%
13:00 +38°C° 0 mm 6 m/s 752 mmHg 42%
14:00 +38°C° 0 mm 6 m/s 751 mmHg 42%
15:00 +38°C° 0 mm 6 m/s 750 mmHg 42%
16:00 +36°C° 0 mm 5 m/s 751 mmHg 45%
17:00 +35°C° 0 mm 5 m/s 751 mmHg 49%
18:00 +34°C° 0 mm 4 m/s 751 mmHg 52%
19:00 +34°C° 0 mm 4 m/s 752 mmHg 52%
20:00 +33°C° 0 mm 4 m/s 752 mmHg 52%
21:00 +33°C° 0 mm 4 m/s 753 mmHg 52%
22:00 +33°C° 0 mm 4 m/s 752 mmHg 53%
23:00 +32°C° 0 mm 4 m/s 752 mmHg 54%

27 Octobre, Mardi

Heure Température Précipitation Vent Pression Humidité
00:00 +32°C° 0 mm 4 m/s 752 mmHg 55%
01:00 +31°C° 0 mm 3 m/s 752 mmHg 58%
02:00 +30°C° 0 mm 3 m/s 752 mmHg 60%
03:00 +30°C° 0 mm 2 m/s 752 mmHg 62%
04:00 +30°C° 0 mm 2 m/s 752 mmHg 63%
05:00 +30°C° 0 mm 2 m/s 753 mmHg 64%
06:00 +29°C° 0 mm 2 m/s 753 mmHg 65%
07:00 +30°C° 0 mm 2 m/s 753 mmHg 60%
08:00 +32°C° 0 mm 2 m/s 754 mmHg 54%
09:00 +34°C° 0 mm 3 m/s 754 mmHg 49%
10:00 +35°C° 0 mm 3 m/s 754 mmHg 46%
11:00 +36°C° 0 mm 4 m/s 753 mmHg 42%
12:00 +37°C° 0 mm 5 m/s 753 mmHg 38%
13:00 +37°C° 0 mm 5 m/s 752 mmHg 39%
14:00 +38°C° 0 mm 6 m/s 752 mmHg 40%
15:00 +38°C° 0 mm 6 m/s 751 mmHg 40%
16:00 +36°C° 0 mm 5 m/s 751 mmHg 44%
17:00 +35°C° 0 mm 4 m/s 752 mmHg 48%
18:00 +34°C° 0 mm 3 m/s 752 mmHg 51%
19:00 +33°C° 0 mm 3 m/s 752 mmHg 52%
20:00 +33°C° 0 mm 3 m/s 753 mmHg 53%
21:00 +33°C° 0 mm 3 m/s 753 mmHg 54%
22:00 +33°C° 0 mm 3 m/s 753 mmHg 55%
23:00 +31°C° 0 mm 3 m/s 753 mmHg 56%
Voir plus

Nous avons besoin de votre consentement

Meteoprog et ses fournisseurs de services peuvent stocker et accéder à des données personnelles telles que des cookies, des identifiants d'appareils ou d'autres technologies similaires sur votre appareil et traiter ces données pour personnaliser le contenu et les publicités, ainsi que pour fournir des fonctionnalités de médias sociaux et analyser le trafic.

  • Stocker et/ou accéder à des informations sur votre appareil

    Des cookies, des identifiants d'appareils ou d'autres informations peuvent être stockés ou accessibles sur votre appareil aux fins indiquées ci-dessus.

  • Annonces et contenus personnalisés, mesure des annonces et des contenus, connaissance de l'audience et développement de produits

    Les annonces et le contenu peuvent être personnalisés en fonction d'un profil. D'autres données peuvent être ajoutées pour mieux personnaliser les annonces et le contenu. Les performances des publicités et du contenu peuvent être mesurées. Il est possible d'obtenir des informations sur le public qui a vu les publicités et le contenu. Ces données peuvent être utilisées pour développer ou améliorer l'expérience de l'utilisateur, les systèmes et les logiciels.

En cliquant sur "J'accepte", vous autorisez l'utilisation de cookies, des identifiants d'appareils, des balises web ou d'autres technologies similaires. Vos paramètres peuvent être modifiés dans le navigateur de votre appareil.

Dans certains cas, des intérêts légitimes peuvent être invoqués plutôt qu'un consentement. Vous pouvez en savoir plus à ce sujet dans notre Politique de confidentialité et de cookies.